Location: *
(44.1392°N, 4.8079°E)
Time: 22:43:59
(UTC+00:00)

Cosmos 44 - Pass Details

Date: 21 June 2021
Orbit: 572 x 790 km, 65.1° (Epoch: 02 August)

Event Time Altitude Azimuth Distance (km) Brightness Sun altitude
Exits shadow 03:10:01 - 205° (SSW) 2,501 5.6 -7.4°
Reaches altitude 10° 03:10:39 10° 205° (SSW) 2,262 5.4 -7.4°
Maximum altitude 03:15:51 73° 121° (ESE) 809 3.7 -6.7°
Drops below altitude 10° 03:21:17 10° 38° (NE) 2,355 7.7 -6.0°
Sets 03:23:44 0° 36° (NE) 3,292 8.8 -5.6°
